Location: Amsterdam
(30.7274°N, 84.4357°W)
Time: 11:35:06
(UTC+00:00)

Gurwin Techsat 1B - Visible Passes

Search period start: 15 March 2026 00:00
Search period end: 25 March 2026 00:00
Orbit: 809 x 812 km, 99.0° (Epoch: 14 March)

Date Brightness Start Highest point End Pass type
(mag) Time Alt. Az. Time Alt. Az. Time Alt. Az.
15 Mar 11.6 09:18:56 10° ENE 09:20:23 11° E 09:21:50 10° ESE visible
15 Mar 8.6 10:55:18 10° N 11:00:33 65° WNW 11:05:47 10° SSW visible
16 Mar 8.9 10:31:43 10° NNE 10:37:01 72° ESE 10:42:17 10° S visible
17 Mar 9.9 10:08:26 10° NNE 10:13:25 40° E 10:18:21 10° S visible
18 Mar 10.9 09:45:35 10° NE 09:49:44 23° E 09:53:52 10° SSE visible
19 Mar 11.5 09:23:42 10° ENE 09:26:00 13° E 09:28:17 10° ESE visible
19 Mar 8.7 11:00:54 10° N 11:06:06 58° WNW 11:11:16 10° SSW visible
20 Mar 8.7 10:37:15 10° NNE 10:42:34 81° ESE 10:47:52 10° S visible
21 Mar 9.7 10:13:54 10° NNE 10:18:59 46° E 10:24:02 10° S visible
22 Mar 10.7 09:50:57 10° NE 09:55:19 26° E 09:59:41 10° SSE visible
23 Mar 11.4 09:28:44 10° ENE 09:31:35 15° E 09:34:26 10° SE visible
23 Mar 8.8 11:06:30 10° N 11:11:37 51° WNW 11:16:44 10° SSW visible
24 Mar 8.6 10:42:48 10° NNE 10:48:07 89° WNW 10:53:25 10° SSW visible
